Dewpoint
55 51 53 49 45 34 32 34 35 34 36 40 41 41 41 45 48 48 56 55 53 53 55 57 65 66 66 66 66 65 63 61 59 60 60 61 62 63 63 64 66 65 66 66 66 67 67 68 68
47 50 51 44 39 41 36 37 34 39 42 42 44 43 41 46 51 54 55 57 55 54 55 61 66 67 66 65 64 62 58 59 60 60 61 62 62 62 63 66 67 66 65 66 66 67 67 67 67
49 50 47 41 35 34 35 37 40 44 44 43 44 47 45 47 50 52 57 56 55 57 59 63 66 66 64 61 60 58 60 60 60 62 59 61 62 62 63 65 66 64 63 63 63 64 63 63 63
48 47 44 42 33 36 38 40 44 46 47 44 45 46 48 51 51 54 56 55 57 60 61 64 66 64 62 59 58 59 60 61 63 63 61 60 60 61 61 64 64 62 62 61 61 61 61 61 62
47 45 43 35 35 38 40 43 45 46 45 45 45 46 48 51 53 55 55 55 56 58 60 62 66 63 60 58 58 59 58 60 63 62 62 60 59 59 60 61 62 61 61 60 59 59 59 60 61
43 38 40 36 36 39 40 43 44 44 45 46 45 46 48 53 53 54 55 57 58 59 60 60 63 61 60 58 57 59 59 61 63 62 62 62 60 59 59 59 59 59 59 59 59 59 59 58 59
40 34 32 33 35 37 40 43 43 43 44 45 45 44 52 52 53 54 55 56 57 59 59 59 60 58 58 59 59 61 61 62 62 61 61 61 61 60 58 57 58 58 58 57 57 58 58 57 57
39 35 34 33 35 38 40 42 44 43 43 46 46 43 50 51 54 53 53 54 53 53 54 55 56 54 51 49 60 61 62 61 60 59 61 60 61 61 60 57 55 56 56 55 54 53 56 57 56
39 35 37 35 36 39 42 42 45 46 46 47 47 43 50 53 54 51 52 51 47 45 49 50 52 54 54 51 53 58 59 59 57 55 55 56 46 46 47 52 53 53 53 52 53 54 54 55 55
36 32 38 38 38 38 42 41 45 44 44 45 47 48 51 53 52 51 50 47 42 43 44 46 50 50 48 42 51 51 49 48 48 48 48 47 50 44 40 46 53 50 53 53 53 53 56 51 41
36 34 38 38 39 37 39 40 43 43 41 43 47 49 52 51 50 50 50 46 38 41 40 43 48 48 46 48 45 45 46 48 49 49 47 48 45 46 40 39 37 40 49 38 43 43 42 46 44
33 37 38 39 39 37 35 39 42 43 44 44 47 51 51 49 48 48 49 45 36 37 42 44 45 49 49 44 43 45 45 46 45 45 46 46 42 42 40 35 37 39 39 41 40 40 44 45 44
35 37 38 40 40 39 39 39 40 42 45 46 49 51 51 49 48 49 49 45 38 39 42 43 46 49 48 47 45 47 47 46 48 44 43 42 42 44 41 42 40 40 40 40 41 40 40 41 43
38 36 37 38 39 39 39 39 41 40 46 47 50 51 50 50 47 50 50 45 41 41 44 45 46 49 49 47 51 50 49 49 46 43 45 46 45 46 43 42 41 42 42 42 43 43 40 40 40
37 35 36 36 37 38 40 37 38 42 45 48 49 50 50 49 48 49 50 47 42 43 44 47 48 49 50 50 50 48 48 46 45 44 49 49 48 48 47 43 43 42 43 44 43 42 42 41 39
35 35 30 39 35 34 40 33 47 43 44 46 48 49 50 50 48 48 50 48 44 44 46 47 44 49 51 50 49 47 47 46 45 44 46 48 47 47 46 44 44 43 43 43 43 44 43 43 41
33 29 37 43 34 30 37 32 43 46 42 43 46 48 50 50 49 48 50 49 46 47 46 46 48 49 50 51 49 50 51 47 45 46 46 48 46 45 44 44 45 45 44 46 45 44 45 43 41
32 35 37 30 25 30 29 33 35 40 41 41 44 47 49 50 49 49 50 50 48 49 47 46 47 50 51 50 50 49 48 47 46 45 45 48 46 46 45 45 47 45 46 45 46 46 44 43 42
28 30 25 24 25 26 28 28 30 42 41 41 41 44 47 50 50 50 51 51 49 50 47 46 46 51 49 47 46 46 46 47 46 46 48 48 46 47 47 45 47 47 47 47 47 46 46 43 42
34 28 28 26 24 28 26 26 32 34 40 40 39 41 45 48 50 50 51 51 50 50 48 46 46 49 48 45 44 45 46 46 45 46 49 48 47 47 45 47 47 48 45 47 47 47 44 42 42
29 27 26 24 26 26 26 26 26 38 45 38 38 38 44 47 49 50 51 52 51 51 50 46 46 47 46 45 43 44 45 45 45 47 47 47 46 46 47 47 48 47 46 44 46 46 44 40 39
30 28 28 27 24 20 31 30 29 41 47 48 38 41 43 46 49 50 51 52 53 52 51 47 46 47 45 46 44 46 44 44 43 46 46 46 47 46 46 47 47 47 45 46 44 43 42 39 33
28 28 29 28 26 24 21 21 26 30 28 28 36 39 43 46 48 49 50 51 51 52 51 49 46 46 46 47 47 47 46 44 45 46 49 49 48 47 46 47 47 47 45 45 43 42 39 34 30
30 24 24 27 26 22 21 19 19 19 25 30 32 32 39 44 47 50 50 50 50 55 54 51 47 46 47 48 48 49 48 46 46 47 48 48 48 47 47 46 47 46 43 40 40 39 37 33 30
25 25 21 23 25 23 20 20 20 21 22 25 27 30 37 39 44 49 49 48 49 52 53 52 47 45 47 48 49 49 49 48 49 49 48 48 47 47 47 47 46 42 40 38 38 36 32 31 30
25 24 26 22 19 17 19 19 20 24 28 31 34 36 41 44 43 46 49 48 48 52 52 50 47 46 46 50 50 50 50 48 47 49 48 47 47 47 48 45 42 38 37 37 35 31 29 31 30
22 26 27 26 26 24 21 19 20 18 24 28 32 38 42 45 46 46 49 48 48 51 52 53 50 46 47 48 50 50 52 49 49 51 51 49 49 45 45 43 39 37 36 33 31 29 30 30 30
26 24 29 30 30 24 19 17 12 18 20 28 31 38 42 43 47 48 49 49 49 50 51 55 52 48 49 49 50 49 51 51 52 52 51 49 47 44 43 39 38 35 32 31 30 28 29 28 28
27 25 27 29 29 27 22 16 23 21 23 26 30 38 41 44 44 47 48 48 49 50 51 52 51 48 48 48 50 52 52 51 53 51 49 47 45 43 39 37 34 31 29 28 28 27 26 26 26
19 24 26 34 29 26 26 21 21 26 27 30 29 37 41 43 44 44 46 47 48 50 51 51 51 49 47 48 50 51 51 52 51 48 47 47 43 40 37 32 29 26 26 27 26 25 25 25 25
Lifted_Index
2 1 -0 -1 -1 -1 -0 1 2 2 2 2 2 2 1 1 0 0 1 2 3 3 3 2 1 0 0 1 1 2 4 4 5 5 5 4 3 3 2 1 1 0 0 -0 -0 -0 -1 -1 -1
2 1 -1 -1 -1 -1 0 1 1 1 2 2 1 1 1 1 1 1 1 2 2 2 2 2 1 1 1 2 2 3 4 5 5 5 5 4 4 3 2 1 1 1 1 1 1 0 0 0 0
1 0 -1 -2 -2 -1 -0 1 1 1 1 1 1 1 1 1 1 1 2 2 2 2 2 1 1 1 2 3 4 5 5 5 5 5 5 4 4 4 3 2 1 2 2 2 2 2 2 2 2
0 -0 -1 -2 -2 -1 -0 0 0 0 1 1 0 0 1 1 1 2 2 2 1 1 1 2 2 2 3 4 5 6 6 5 5 4 4 5 5 5 4 3 3 3 4 4 4 4 4 4 4
-0 -1 -1 -1 -1 -1 -0 -0 -0 -0 0 0 0 0 1 1 1 2 2 2 1 1 2 2 2 3 4 5 6 7 6 5 4 4 4 5 5 5 5 4 4 4 5 5 5 5 5 5 5
-1 -1 -1 -1 -1 -1 -0 -0 -0 -0 -0 0 0 0 0 1 1 1 2 2 2 1 2 2 3 4 5 6 7 7 6 5 4 4 4 4 5 5 6 5 5 5 6 6 6 6 6 6 6
-1 -1 -1 -1 -1 -1 -0 -0 -0 -0 -0 0 0 0 0 0 1 1 2 2 2 2 2 3 3 5 7 8 7 7 6 5 4 5 5 5 5 5 6 6 7 7 7 7 7 7 7 7 8
-0 -1 -1 -2 -2 -1 -0 -0 -0 -0 -0 -0 0 0 0 0 1 1 2 3 4 4 4 4 4 6 8 8 8 6 6 5 6 6 6 6 6 6 7 8 8 8 8 9 9 9 8 9 9
-0 -1 -1 -1 -2 -1 -1 -0 -1 -1 -0 -0 0 1 1 1 1 1 2 3 5 6 6 6 6 6 8 8 8 7 6 7 7 7 7 7 7 8 9 10 10 10 10 10 10 10 9 9 9
-0 -1 -1 -1 -1 -1 -1 -1 -1 -1 -1 -0 -0 0 1 1 1 1 2 4 6 7 7 7 7 7 8 9 8 8 7 7 8 8 8 8 8 9 10 11 11 11 11 11 11 10 9 9 9
-1 -1 -1 -1 -0 -0 -0 -1 -1 -1 -1 -1 -0 -0 1 1 2 2 2 3 6 7 8 8 8 8 8 9 8 8 8 8 8 8 8 8 9 9 10 11 11 11 10 10 10 9 9 8 8
-1 -1 -1 -1 -0 -0 0 -0 -1 -1 -1 -1 -1 -0 0 1 2 1 2 3 6 7 8 8 8 8 8 8 8 8 8 8 8 9 9 9 9 10 10 10 10 10 10 9 9 9 9 9 9
-1 -2 -1 -1 -0 -0 0 -0 -0 -1 -1 -1 -1 -1 0 1 2 1 1 3 5 7 7 7 7 7 7 8 7 7 7 7 8 9 10 10 9 10 10 10 10 9 9 9 9 9 9 9 9
-1 -2 -2 -1 -0 -0 -0 -0 -0 -1 -1 -1 -1 -1 -0 1 1 1 1 3 5 6 6 7 7 7 7 7 7 7 7 7 8 9 9 9 9 9 9 9 9 9 9 9 9 9 9 9 9
-1 -1 -2 -1 -0 -1 -1 -1 -1 -1 -1 -2 -2 -2 -1 -0 1 1 1 2 4 5 6 6 6 6 6 6 6 7 7 7 8 9 9 9 9 9 9 9 9 9 9 9 8 8 8 9 9
-1 -1 -1 -1 -0 -0 -1 -1 -1 -1 -2 -2 -2 -2 -2 -1 0 1 1 2 3 4 5 6 6 6 6 6 6 6 7 7 8 8 9 9 9 9 9 9 9 9 9 8 8 8 8 9 9
-1 -1 -1 -1 -1 -1 -1 -1 -1 -1 -1 -2 -2 -2 -2 -2 -1 -0 0 1 2 4 5 6 6 6 6 6 6 6 6 7 8 8 9 9 9 9 9 9 8 8 8 8 8 9 9 9 10
-1 -1 -1 -1 -1 -1 -1 -2 -2 -1 -1 -2 -2 -2 -3 -2 -2 -1 -0 1 2 3 5 6 6 6 6 6 6 6 6 7 7 8 8 9 9 9 9 8 8 8 8 8 9 9 9 10 10
-1 -1 -1 -1 -1 -1 -1 -1 -1 -1 -2 -2 -2 -2 -3 -3 -3 -2 -1 0 1 3 5 6 6 6 6 6 6 6 6 6 7 7 8 8 8 8 8 8 8 8 8 9 10 10 10 10 10
-1 -1 -1 -1 -1 -0 -1 -1 -1 -1 -1 -2 -2 -2 -3 -4 -3 -2 -2 -1 0 2 4 5 6 6 6 6 6 6 6 6 7 7 7 8 8 8 8 8 8 8 9 10 10 10 10 10 11
-1 -1 -1 -1 -1 -0 -0 -1 -1 -1 -1 -2 -2 -2 -3 -4 -4 -3 -2 -2 -1 1 2 4 5 6 6 6 6 6 6 6 7 7 7 8 8 8 8 8 8 9 9 10 10 10 10 11 12
-1 -1 -1 -1 -1 -1 -1 -1 -1 -0 -0 -1 -2 -3 -3 -4 -4 -3 -3 -2 -2 -0 1 3 4 5 6 6 6 6 6 6 6 6 7 7 8 8 8 8 9 9 10 11 11 11 11 13 14
-0 -0 -0 -1 -1 -1 -1 -0 -0 -0 -0 -1 -1 -2 -3 -4 -4 -4 -3 -3 -2 -1 0 1 3 5 5 5 5 5 5 5 6 6 6 7 7 8 8 9 9 10 11 11 11 12 13 15 17
1 1 1 -0 -1 -1 -0 -0 -0 -0 -0 0 -0 -1 -2 -3 -4 -4 -4 -3 -2 -1 -1 0 2 4 5 5 5 4 4 5 5 5 5 6 7 8 8 9 10 11 11 11 12 13 16 18 19
2 2 1 -0 -1 -1 -0 -0 0 0 0 0 0 -0 -1 -3 -4 -4 -4 -3 -2 -1 -1 -0 1 2 4 4 4 4 4 4 4 4 4 5 6 8 9 10 11 11 12 12 14 16 18 20 20
1 1 1 -0 -1 -0 -0 0 0 0 1 1 0 -0 -1 -2 -3 -4 -4 -3 -2 -1 -1 -0 0 2 3 4 4 3 3 3 4 3 4 5 6 8 10 10 11 12 13 14 16 19 20 20 20
1 1 0 0 -0 -0 -0 0 0 0 0 1 0 -0 -1 -2 -3 -4 -4 -3 -2 -2 -1 -1 -0 1 3 4 3 2 2 3 3 3 4 5 7 9 10 11 11 12 14 16 19 20 21 21 21
2 1 1 1 0 -0 -0 -0 0 0 0 1 0 -0 -1 -1 -2 -3 -3 -3 -2 -2 -1 -1 0 1 3 3 3 2 2 3 3 4 5 6 8 10 10 11 12 14 16 19 20 21 21 21 21
2 2 1 1 1 0 0 0 0 0 1 1 0 -0 -1 -1 -1 -2 -3 -2 -2 -1 -1 -1 -0 1 2 3 3 3 3 3 4 5 6 7 9 10 11 12 13 16 18 20 21 22 22 22 22
2 2 1 1 1 1 1 1 0 1 1 1 0 -0 -0 -0 -1 -1 -2 -2 -1 -1 -1 -1 -0 1 2 3 3 3 3 3 4 6 7 8 9 10 11 12 14 17 20 21 22 22 23 23 23